FW0304 Weather Reports


Display with metric or nautical units.
time (UTC)temp
F
wind
direction
speed
MPH
gust
MPH
rain 1hr
in
rain 24hr
in
rain mn
in
humidity
%
barometer
mb
20260903163035 96 115 0.0 3.0 0.00 0.00 0.00 51 1017.0
20260903161529 95 158 1.0 2.0 0.00 0.00 0.00 53 1017.2
20260903160031 94 11 1.0 3.0 0.00 0.00 0.00 57 1017.2
20260903154516 93 61 0.0 3.0 0.00 0.00 0.00 60 1017.2
20260903153020 93 159 0.0 2.0 0.00 0.00 0.00 61 1017.3
20260903151526 91 187 0.0 2.0 0.00 0.00 0.00 63 1017.2
20260903150042 91 122 0.0 2.0 0.00 0.00 0.00 63 1017.3
20260903144533 89 113 0.0 2.0 0.00 0.00 0.00 67 1017.3
20260903143030 88 123 0.0 2.0 0.00 0.00 0.00 68 1017.3
20260903141527 86 148 1.0 2.0 0.00 0.00 0.00 71 1017.3
20260903140032 85 38 0.0 2.0 0.00 0.00 0.00 73 1017.5
20260903134535 83 163 0.0 2.0 0.00 0.00 0.00 76 1017.7
20260903133019 82 9 0.0 2.0 0.00 0.00 0.00 81 1017.7
20260903131524 80 148 0.0 2.0 0.00 0.00 0.00 82 1017.8
20260903130028 78 124 0.0 2.0 0.00 0.00 0.00 86 1017.8
20260903124531 77 102 0.0 0.0 0.00 0.00 0.00 90 1017.7
20260903123034 76 102 0.0 0.0 0.00 0.00 0.00 91 1017.7
20260903121520 75 102 0.0 0.0 0.00 0.00 0.00 92 1017.6
20260903120030 74 102 0.0 0.0 0.00 0.00 0.00 92 1017.4
20260903114533 74 102 0.0 0.0 0.00 0.00 0.00 93 1017.2
20260903113011 74 102 0.0 0.0 0.00 0.00 0.00 92 1017.0
20260903111520 74 102 0.0 0.0 0.00 0.00 0.00 93 1016.8
20260903110023 74 102 0.0 0.0 0.00 0.00 0.00 92 1016.5
20260903104507 75 102 0.0 0.0 0.00 0.00 0.00 92 1016.5
20260903103009 75 102 0.0 0.0 0.00 0.00 0.00 92 1016.4
20260903101536 75 102 0.0 0.0 0.00 0.00 0.00 92 1016.3
20260903100029 75 102 0.0 0.0 0.00 0.00 0.00 92 1016.2
20260903094526 75 102 0.0 0.0 0.00 0.00 0.00 91 1016.2
20260903093008 75 102 0.0 0.0 0.00 0.00 0.00 92 1016.3
20260903091513 75 102 0.0 0.0 0.00 0.00 0.00 91 1016.3
20260903090016 76 102 0.0 0.0 0.00 0.00 0.00 91 1016.5
20260903084532 76 102 0.0 0.0 0.00 0.00 0.00 90 1016.4
20260903083017 76 102 0.0 0.0 0.00 0.00 0.00 90 1016.5
20260903081510 76 102 0.0 0.0 0.00 0.00 0.00 90 1016.3
20260903080036 76 102 0.0 0.0 0.00 0.00 0.00 90 1016.3
20260903074524 77 102 0.0 0.0 0.00 0.00 0.00 89 1016.1
20260903073033 77 102 0.0 0.0 0.00 0.00 0.00 90 1016.2
20260903071508 77 102 0.0 0.0 0.00 0.00 0.00 90 1016.2
20260903070018 77 102 0.0 0.0 0.00 0.00 0.00 90 1016.2
20260903064523 77 102 0.0 0.0 0.00 0.00 0.00 89 1016.2
20260903063026 77 102 0.0 0.0 0.00 0.00 0.00 89 1016.4
20260903061533 78 102 0.0 0.0 0.00 0.00 0.00 89 1016.4
20260903060012 78 102 0.0 0.0 0.00 0.00 0.00 88 1016.4
20260903054523 78 102 0.0 0.0 0.00 0.00 0.00 88 1016.5
20260903053028 78 102 0.0 0.0 0.00 0.00 0.00 88 1016.4
20260903051530 78 102 0.0 0.0 0.00 0.00 0.00 87 1016.4
20260903050022 79 102 0.0 0.0 0.00 0.00 0.00 86 1016.5
20260903044523 79 102 0.0 0.0 0.00 0.00 0.00 86 1016.4
20260903043027 79 102 0.0 0.0 0.00 0.00 0.00 86 1016.5
20260903041530 79 102 0.0 0.0 0.00 0.00 0.00 86 1016.5
20260903040037 80 102 0.0 0.0 0.00 0.00 0.00 85 1016.4
20260903034514 80 102 0.0 0.0 0.00 0.00 0.00 84 1016.4
20260903033024 80 102 0.0 0.0 0.00 0.00 0.00 84 1016.5
20260903031525 80 102 0.0 0.0 0.00 0.00 0.00 83 1016.5
20260903030040 81 102 0.0 0.0 0.00 0.00 0.00 83 1016.5
20260903024532 81 102 0.0 0.0 0.00 0.00 0.00 82 1016.5
20260903023016 82 102 0.0 0.0 0.00 0.00 0.00 81 1016.4
20260903021526 82 102 0.0 0.0 0.00 0.00 0.00 81 1016.3
20260903020031 82 102 0.0 0.0 0.00 0.00 0.00 79 1016.3
20260903014512 83 102 0.0 0.0 0.00 0.00 0.00 78 1016.2
20260903013016 83 102 0.0 0.0 0.00 0.00 0.00 77 1015.8
20260903011526 84 102 0.0 0.0 0.00 0.00 0.00 77 1015.8
20260903010030 84 102 0.0 0.0 0.00 0.00 0.00 74 1015.7
20260903004508 85 102 0.0 0.0 0.00 0.00 0.00 73 1015.5
20260903003014 86 102 0.0 0.0 0.00 0.00 0.00 72 1015.5
20260903001530 87 102 0.0 0.0 0.00 0.00 0.00 69 1015.4
20260903000027 89 102 0.0 0.0 0.00 0.00 0.00 66 1015.4
20260902234535 90 102 0.0 0.0 0.00 0.00 0.00 63 1015.4
20260902233012 92 102 0.0 0.0 0.00 0.00 0.00 60 1015.3
20260902231524 95 102 0.0 2.0 0.00 0.00 0.00 51 1015.3
20260902230026 95 73 0.0 2.0 0.00 0.00 0.00 48 1015.4
20260902224532 95 60 0.0 2.0 0.00 0.00 0.00 47 1015.6
20260902223034 95 144 1.0 2.0 0.00 0.00 0.00 47 1015.6
20260902221518 95 352 0.0 2.0 0.00 0.00 0.00 47 1015.6
20260902220024 96 352 0.0 2.0 0.00 0.00 0.00 47 1015.4
20260902214529 96 325 0.0 4.0 0.00 0.00 0.00 47 1015.6
20260902213033 96 120 0.0 2.0 0.00 0.00 0.00 46 1015.8
20260902211512 96 81 0.0 2.0 0.00 0.00 0.00 46 1015.9
20260902210020 96 154 0.0 2.0 0.00 0.00 0.00 47 1015.8
20260902204529 96 19 1.0 2.0 0.00 0.00 0.00 46 1016.0
20260902203027 96 163 1.0 4.0 0.00 0.00 0.00 46 1016.1
20260902201532 96 15 0.0 2.0 0.00 0.00 0.00 46 1016.1
20260902200017 95 13 0.0 2.0 0.00 0.00 0.00 47 1016.5
20260902194535 95 115 0.0 3.0 0.00 0.00 0.00 47 1016.7
20260902193029 96 289 0.0 2.0 0.00 0.00 0.00 47 1017.0
20260902191531 97 136 0.0 3.0 0.00 0.00 0.00 45 1017.2
20260902190050 96 352 0.0 3.0 0.00 0.00 0.00 46 1017.5
20260902184527 96 126 1.0 4.0 0.00 0.00 0.00 46 1017.7
20260902183035 96 352 1.0 4.0 0.00 0.00 0.00 46 1017.8
20260902181530 96 340 0.0 7.0 0.00 0.00 0.00 47 1017.9
20260902180039 96 137 1.0 4.0 0.00 0.00 0.00 43 1018.2
20260902174533 95 343 0.0 4.0 0.00 0.00 0.00 45 1018.4
20260902173033 96 123 0.0 4.0 0.00 0.00 0.00 47 1018.5
20260902171504 95 173 1.0 3.0 0.00 0.00 0.00 48 1018.7
20260902170010 96 150 1.0 4.0 0.00 0.00 0.00 49 1019.1
20260902164523 94 132 0.0 3.0 0.00 0.00 0.00 54 1019.0